Regional Weather Roundup
Issued by NWS

Home | Current Version | Previous Version | Text Only | Print | Product List | Glossary On
Versions: 1 2 3 4 5 6 7 8 9 10 11 12 13 14 15 16 17 18 19 20 21 22 23 24 25 26 27 28 29 30 31 32 33 34 35 36 37 38 39 40 41 42 43 44 45 46 47 48 49 50
000
ASHW40 PHFO 310210
RWRHI

WEATHER ROUNDUP FOR HAWAII
NATIONAL WEATHER SERVICE HONOLULU HI
400 PM HST WED JUL 30 2014

THIS IS AN AUTOMATED REPORT THAT HAS NOT BEEN QUALITY CONTROLLED.

NOTE..."FAIR" INDICATES FEW OR NO CLOUDS BELOW 12,000 FEET WITH NO
SIGNIFICANT WEATHER AND/OR OBSTRUCTIONS TO VISIBILITY.

* - THESE SITES REPORT LIMITED FIELDS

HIZ001>004-310300-
KAUAI-NIIHAU-

CITY           SKY/WX    TMP DP  RH WIND       PRES   REMARKS
LIHUE APT      MOSUNNY   84  67  56 NE14      30.02F
PORT ALLEN*      N/A     86 N/A N/A E20G25      N/A
POIPU*           N/A     86 N/A N/A NE9G17      N/A
PRINCEVILLE*   NOT AVBL
KOKOLE POINT*  NOT AVBL
MOLOAA DAIRY*  NOT AVBL
WAIMEA HTS*    NOT AVBL
PUU OPAE*      NOT AVBL
PUU LUA*       NOT AVBL
MAKAHA RIDGE*  NOT AVBL
$$

HIZ005>011-310300-
OAHU-

CITY           SKY/WX    TMP DP  RH WIND       PRES   REMARKS
HONOLULU       MOSUNNY   86  62  44 NE17G25   29.97F
KALAELOA       MOSUNNY   88  63  43 NE10G17   29.98F
KANEOHE MCB    MOSUNNY   81  65  58 E12G20    29.99F
WHEELER FIELD  FAIR      82  63  53 NE9       30.00F
BELLOWS*       NOT AVBL
KAHUKU*        NOT AVBL
WHEELER*       NOT AVBL
WAIANAE HARBOR NOT AVBL
DILLINGHAM*      N/A     90  64  43 NE9G20      N/A  HX  91
KAHUKU TRN*      N/A     79  70  73 E8G20       N/A
KAWAILOA*      NOT AVBL
KII*             N/A     81  72  74 CALM        N/A
MAKUA RANGE*     N/A    N/A N/A N/A E12G23      N/A
OAHU FOREST NW NOT AVBL
SCHOFIELD BRK*   N/A     81  63  54 MISG        N/A
SCHOFIELD S*   NOT AVBL
WAIANAE VLY*   NOT AVBL
KUAOKALA*      NOT AVBL
HONOULIUULI*   NOT AVBL
MOKUOLOE IS*     N/A    N/A N/A N/A MISG        N/A
PALEHUA*       NOT AVBL
WAIAWA PHB*    NOT AVBL
$$

HIZ012>013-310300-
MOLOKAI-

CITY           SKY/WX    TMP DP  RH WIND       PRES   REMARKS
MOLOKAI AIRPT  SUNNY     82  70  66 NE16G26   29.98F
KALAUPAPA      NOT AVBL
MAKAPULAPAI*   NOT AVBL
MOLOKAI 1*     NOT AVBL
PUU ALII*      NOT AVBL
$$

HIZ016-310300-
KAHOOLAWE-

CITY           SKY/WX    TMP DP  RH WIND       PRES   REMARKS
KAHOOLAWE*     NOT AVBL
HAKIOAWA*      NOT AVBL
HONOKANAIA*      N/A     85  68  56 E18G32    29.96F
KANELOA*         N/A     79  66  65 E22G35    30.06F
KEALIALALO*    NOT AVBL
LUA MAKIKA*    NOT AVBL
$$

HIZ014>015-310300-
LANAI-

CITY           SKY/WX    TMP DP  RH WIND       PRES   REMARKS
LANAI CITY     FAIR      81  65  58 NE22      30.02F
LANAI 1*       NOT AVBL
$$

HIZ017>028-310300-
MAUI-

CITY           SKY/WX    TMP DP  RH WIND       PRES   REMARKS
KAHULUI        MOSUNNY   86  64  47 NE23G29   29.96S
KAPALUA-W MAUI MOSUNNY   82  64  54 NE21G29   29.97
HANA AIRPORT   MOSUNNY   82  66  57 E6        30.02S
HANA*          NOT AVBL
HALEAKALA SUMM   N/A     61  36  39 NE8         N/A
MAALAEA BAY*   NOT AVBL
HALEAKALA*     NOT AVBL
KAUPO GAP*     NOT AVBL
KULA 1*          N/A     59  54  84 SW3G12      N/A
$$

HIZ023>026-310300-
BIG ISLAND OF HAWAII COAST AND LOWER SLOPES-

CITY           SKY/WX    TMP DP  RH WIND       PRES   REMARKS
KAILUA KONA    PTSUNNY   85  68  56 SW12      29.93S
HILO           PTSUNNY   82  65  56 NE9       29.99S
HONOKAA*       NOT AVBL
KAWAIHAE MWT*  NOT AVBL
KAWAIHAE*        N/A     82 N/A N/A SW10        N/A
SOUTH POINT*   NOT AVBL
UPOLU AIRPORT* NOT AVBL
KAMUELA*       CLEAR     75  59  57 NE16      30.08S
HAKALAU*         N/A     57  56  96 E2          N/A
KALOKO-HONOKO* NOT AVBL
PALI 2*          N/A     73  59  60 N18G30      N/A
KEALAKOMO*       N/A     84  68  58 E21G29      N/A
KAUPULEHU*     NOT AVBL
KAPAPALA*        N/A     74  65  73 SE3G14      N/A
LOWER KAHUKU*  NOT AVBL
PUHE CS*       NOT AVBL
PUHO CS*       NOT AVBL
PTA KEAMUKU*     N/A     73  59  60 NE17G29     N/A
WAIKOLOA*      NOT AVBL
$$

HIZ027>028-310300-
BIG ISLAND OF HAWAII INTERIOR AND SUMMMITS-

CITY           SKY/WX    TMP DP  RH WIND       PRES   REMARKS
BRADSHAW FIELD SUNNY     68  52  55 W8G17     30.30F
MK VISITOR CEN NOT AVBL
MAUNA KEA*       N/A     45  32  61 E8          N/A
MAUNA LOA*       N/A     52  43  71 MISG        N/A
MAUNA LOA 1*   NOT AVBL
PTA KIPUKA*      N/A     73  54  49 NW7G15      N/A
PTA RANGE 17*    N/A     70  54  56 W10G18      N/A
PTA WEST*        N/A     73  55  53 NW10G18     N/A
NENE CABIN*    NOT AVBL
AHUMOA*        NOT AVBL
PTA PORTABLE*  NOT AVBL
PUU MALI*      NOT AVBL
$$

HIC003-310300-
NORTHWEST ISLANDS-

CITY           SKY/WX    TMP DP  RH WIND       PRES   REMARKS
MIDWAY ISLAND  SUNNY     88  75  66 SW12      30.02F HX  97
MIDWAY NOS*    NOT AVBL
FRENCH FRIGATE NOT AVBL
$$

PHZ110>124-180-310300-
BUOY REPORTS

STATION/POSITION TIME  TEMP    WIND        PRES    WAVE   SWELL
                       AIR SEA DIR/SP/G            HT/PER HT/DIR
                 (UTC) (F)     (DEG/KT/KT) (MB)    (FT/S) (FT/D)
BUOY 51001       NOT AVBL
BUOY 51101       NOT AVBL
BUOY 51100       0200   76 78  110/  2/  4 1016.9F   5/ 8   5/120
BUOY 51003       0100   81 82   90/  8/ 10 1014.7F   7/ 9   7
BUOY 51004       0114   80 80   60/ 17/ 21 1012.8F   8/ 8   3/180
BARBERS PT BUOY  NOT AVBL
WAIMEA BAY BUOY  0200      80                N/A     3/ 5
KAILUA BAY BUOY  0200      80                N/A     4/ 9   2/100
LANAI BUOY       0200      80                N/A     3/13   2/210
BARBERS PT 2     0200      81                N/A     4/13   2/210
PAUWELA MAUI     0200      79                N/A     5/ 9   2/100
HILO             NOT AVBL
KANEOHE BAY BUOY 0200      80                N/A     3/ 8
HANALEI KAUAI    NOT AVBL
KAHULUI HARBOR   0200   79 81   40/ 19/ 24 1014.5F
HONOLULU HARBOR  0200   83      50/  7/ 13 1015.3F
KILO NALU        NOT AVBL
HILO HARBOR      0200   82      30/  7/ 10 1015.0F
MOKUOLOE         0200      83              1015.9F
NAWILIWILI       0200      82                N/A
WHOTS BUOY       NOT AVBL
BUOY 51028       NOT AVBL
$$

......................KEY........................................
  SKY/WX - SKY CONDITIONS/PRESENT WEATHER
  TMP    - TEMPERATURE IN FAHRENHEIT
  DWPT   - DEWPOINT IN FAHRENHEIT
  RH     - RELATIVE HUMIDITY IN PERCENT
  WIND   - DIRECTION AND SPEED /MPH FOR ISLANDS...KTS FOR BUOYS/
  PRES   - MEAN SEA LEVEL PRESSURE IN INCHES OF HG
  VSB    - VISIBILITY IN MILES
  HX     - HEAT INDEX
  WCI    - WIND CHILL INDEX
  VRB    - VARIABLE WIND DIRECTION
  N/A    - NOT AVAILABLE


USA.gov is the U.S. government's official web portal to all federal, state and local government web resources and services.